Location: Cahas Mountain Overlook
(37.0833°N, 80.1000°W)
Time: 08:58:18
(UTC-05:00)

S-56A Canister/Altair - Pass Details

Date: 05 December 2023
Orbit: 640 x 2488 km, 38.9° (Epoch: 25 February)

Event Time Altitude Azimuth Distance (km) Brightness Sun altitude
Rises 10:17:13 0° 217° (SW) 3,632 11.3 24.8°
Reaches altitude 10° 10:20:30 10° 205° (SSW) 2,444 10.7 25.1°
Maximum altitude 10:24:56 25° 151° (SSE) 1,413 13.1 25.5°
Drops below altitude 10° 10:28:42 10° 95° (E) 2,054 10.2 25.8°
Sets 10:31:12 0° 81° (E) 2,932 10.7 26.1°
